Wind_Speed
16 15 13 12 11 10 9 9 11 11 13 13 11 10 12 11 13 14 14 14 13 13 12 12 13 13 13 13 13 13 13 12 12 11 10 10 10 11 10 11 11 11 11 11
18 16 14 14 13 13 12 11 10 12 14 14 12 12 13 14 14 14 15 14 13 14 14 14 14 14 14 14 14 14 13 12 11 10 10 9 9 10 10 10 11 11 11 12
19 16 17 16 15 14 13 12 11 12 14 14 11 11 12 15 15 15 15 14 14 14 14 13 14 14 14 13 13 13 13 12 11 10 10 9 9 9 9 10 12 12 12 12
21 20 19 18 16 15 15 14 14 14 14 13 11 12 14 14 14 15 15 15 14 14 15 13 13 14 13 12 12 12 13 12 12 11 10 9 9 10 10 11 13 13 13 13
23 22 21 19 17 17 16 15 15 15 14 13 12 12 15 16 16 14 14 15 15 15 15 14 13 12 12 12 12 12 12 12 11 11 10 9 9 9 10 11 13 14 14 14
24 24 23 21 19 19 17 16 15 14 13 15 13 13 16 18 18 16 16 16 16 15 16 15 12 12 12 12 12 12 12 12 11 11 11 10 10 10 11 12 13 14 14 15
25 25 24 22 20 19 18 16 13 12 12 12 12 13 17 19 18 17 17 16 15 15 15 14 13 12 12 12 12 12 11 11 11 11 10 9 10 10 11 12 13 14 15 15
24 24 23 22 20 19 18 16 15 11 11 12 13 15 17 20 18 17 17 17 16 15 14 14 13 13 12 12 12 12 12 11 11 11 11 10 10 10 10 11 12 13 15 16
20 20 21 22 21 20 19 18 15 15 13 13 14 13 18 20 19 18 19 18 16 16 15 15 14 13 13 13 12 12 12 12 12 12 11 10 10 10 10 11 11 13 15 16
21 17 18 21 23 22 21 19 18 19 18 16 15 17 19 18 18 18 17 17 17 16 15 15 15 14 14 13 13 13 13 13 13 12 11 11 10 10 11 12 13 14 16 17
26 22 18 22 24 21 22 22 21 20 19 17 17 19 20 20 19 17 18 17 16 17 15 15 14 14 14 14 15 14 13 13 13 12 12 13 12 11 11 12 14 15 16 18
28 26 22 21 21 20 21 22 22 23 22 20 19 22 22 19 17 18 18 17 17 16 15 15 13 14 15 15 15 15 14 14 14 13 13 13 13 12 12 13 14 15 16 18
29 30 28 23 22 22 22 23 23 22 21 21 19 24 25 23 17 18 18 17 17 17 15 14 15 16 16 16 15 15 15 15 15 14 13 13 13 14 13 13 14 14 15 17
31 32 30 25 21 20 20 21 23 23 22 21 21 25 25 23 19 19 18 18 19 17 17 17 17 17 17 17 16 16 16 16 15 14 15 14 14 13 13 13 14 14 15 16
33 32 31 29 23 20 21 20 22 24 24 23 24 27 27 23 21 20 20 19 19 17 18 18 18 18 18 18 17 18 18 17 16 15 15 15 15 14 14 14 14 15 15 16
33 32 31 31 27 22 21 21 21 23 25 24 26 25 23 22 22 20 20 20 19 19 19 19 19 19 19 19 19 19 19 19 18 17 17 16 16 16 16 15 15 15 15 15
33 32 32 30 28 24 24 21 21 22 23 26 28 29 26 22 21 20 20 21 21 19 20 20 19 19 20 20 20 20 20 19 18 18 18 17 17 16 16 15 15 15 15 15
33 32 32 30 27 28 24 22 22 23 26 29 31 31 28 26 23 22 22 23 23 22 22 21 21 21 21 21 21 20 20 20 19 19 18 18 17 17 16 16 15 15 15 15
35 34 33 30 27 26 26 26 25 26 27 29 31 31 29 28 25 24 25 25 24 24 23 23 23 22 22 22 22 21 21 21 20 20 19 18 17 17 17 17 17 17 17 17
36 35 34 33 31 29 30 29 27 28 31 32 32 30 29 30 29 27 25 24 24 24 25 24 24 23 23 23 23 23 23 22 22 21 20 20 19 19 19 18 18 18 18 18
36 36 36 35 32 31 31 30 30 31 32 32 31 30 30 29 29 27 25 25 24 25 25 25 25 25 24 24 23 23 23 23 22 22 21 20 19 19 19 19 19 20 20 20
35 36 36 36 33 33 33 30 31 32 30 30 29 29 30 29 28 27 26 25 25 25 25 25 25 25 25 25 24 24 24 23 23 22 21 21 21 21 20 20 19 20 21 21
35 36 37 37 38 38 33 30 30 29 29 28 29 29 28 28 27 27 26 26 25 25 26 26 26 25 25 24 24 23 24 24 23 23 23 22 22 22 22 21 21 21 21 21
36 38 38 39 41 40 36 33 32 30 28 29 29 28 27 28 28 27 27 27 26 26 27 26 26 25 24 24 23 23 23 23 23 23 23 23 23 23 22 22 22 23 23 23
35 38 40 40 40 39 39 37 33 32 31 30 31 31 30 29 29 28 28 27 27 27 27 27 26 25 25 24 23 23 23 23 23 23 23 23 22 22 22 22 22 23 23 23
34 38 40 41 40 39 38 36 34 33 32 31 30 30 30 29 28 28 28 28 28 28 28 27 26 25 24 23 23 23 23 23 23 23 23 22 22 22 22 22 22 23 24 24
Wind_Direction
238 239 239 239 236 227 226 235 242 247 252 267 267 258 269 274 278 284 288 294 296 298 300 305 311 311 311 312 314 316 313 312 312 303 296 286 269 255 243 234 227 229 238 241
238 238 237 235 234 234 233 232 237 249 253 268 265 259 255 264 278 281 286 291 294 297 299 303 304 306 308 308 308 310 309 308 305 303 297 287 275 258 249 237 230 231 238 242
239 237 237 236 236 237 237 235 231 239 254 268 269 266 267 266 274 284 292 295 295 295 297 302 302 304 306 308 306 308 307 306 304 302 298 285 270 257 250 243 240 238 239 239
238 236 238 237 237 238 240 240 237 239 246 259 263 270 275 276 277 283 288 293 292 294 297 299 301 302 305 306 308 309 304 302 299 296 291 286 275 263 255 247 240 238 237 239
239 238 239 239 238 239 239 240 244 245 246 245 248 255 270 276 278 279 290 288 289 289 296 296 298 302 303 303 305 307 303 302 300 294 290 284 280 269 258 252 247 241 240 240
237 240 240 239 240 239 240 242 247 246 244 248 243 243 258 268 271 268 277 282 285 289 294 299 294 301 301 302 303 304 301 299 298 294 290 288 279 271 265 257 251 245 243 241
236 236 241 240 239 240 239 239 242 248 253 254 246 241 255 266 270 269 277 281 284 285 294 298 299 296 298 301 305 306 303 300 299 297 293 292 287 278 271 262 255 246 242 242
239 238 241 241 238 237 238 234 229 230 260 269 252 237 250 266 274 279 280 283 283 284 287 290 294 295 298 301 305 305 304 304 304 303 295 292 288 281 271 262 254 249 245 245
233 247 245 242 237 230 231 232 223 223 239 263 264 249 248 268 278 280 280 281 280 281 284 287 291 291 295 302 306 307 305 304 305 305 302 295 290 285 273 266 257 250 247 245
211 232 244 243 237 231 225 227 224 221 232 247 255 254 254 262 275 281 279 281 279 277 280 282 287 287 290 298 302 302 303 304 304 300 300 300 293 288 279 267 261 259 253 247
208 213 226 239 241 234 226 222 223 226 228 237 256 255 251 256 267 278 284 283 281 280 281 282 286 289 292 297 300 300 300 302 302 299 293 292 292 291 285 274 268 264 260 254
212 212 215 232 243 236 230 226 226 227 227 226 245 266 264 253 261 275 279 278 277 278 278 279 283 289 291 295 300 300 298 300 301 298 292 289 292 290 285 280 273 270 264 256
214 213 212 217 231 235 229 227 224 229 232 231 236 259 265 271 267 269 275 276 277 277 280 280 284 287 288 292 297 301 299 299 299 296 292 292 293 291 286 282 277 274 269 261
214 217 214 214 225 236 236 229 225 223 225 232 237 251 258 262 266 272 275 277 275 275 278 281 284 286 287 289 293 297 299 298 298 298 294 293 293 292 290 286 281 278 273 267
216 217 215 209 212 224 231 230 225 222 223 231 239 246 252 250 258 269 278 278 274 275 277 279 282 284 286 287 291 293 296 295 295 296 295 295 294 291 291 289 284 281 277 271
218 216 213 212 209 218 228 227 224 223 222 229 244 248 246 252 258 263 270 275 275 274 278 280 281 282 284 287 289 293 293 292 292 293 292 294 294 292 291 288 283 279 276 272
220 218 214 213 215 221 222 222 226 224 224 228 240 248 250 253 255 263 270 273 273 273 277 280 279 281 284 287 288 291 293 292 293 294 293 293 294 291 288 287 287 284 280 277
219 217 216 214 214 222 223 220 224 226 224 229 237 245 249 255 258 261 267 270 271 273 275 278 280 282 283 286 287 289 292 293 292 292 293 293 289 288 287 285 286 285 287 284
219 217 215 213 218 224 223 220 221 224 226 230 238 244 249 253 258 262 265 268 270 271 274 277 280 283 283 283 285 287 289 291 291 290 291 290 287 286 285 284 283 285 285 285
219 218 216 213 215 222 227 218 217 225 231 233 239 243 247 252 259 262 265 267 268 270 272 275 278 280 282 282 283 284 286 289 290 291 291 290 288 286 285 285 284 282 284 285
218 218 218 216 218 225 228 224 219 222 230 235 242 245 250 255 260 263 265 267 269 270 271 273 276 278 280 281 281 282 284 287 288 289 290 290 290 290 287 284 282 281 281 284
224 222 220 219 220 228 227 228 226 226 232 238 242 247 253 256 258 260 263 267 270 271 272 274 276 277 278 279 279 280 282 284 286 286 287 288 289 289 289 288 284 282 282 281
222 221 220 220 222 227 230 228 229 234 239 243 247 249 251 254 257 259 262 265 268 269 272 274 277 277 276 278 278 280 281 282 283 283 285 286 286 286 286 285 283 283 284 283
218 220 219 220 223 227 232 232 235 239 243 248 252 253 253 255 257 259 262 266 268 270 272 274 276 277 277 277 278 280 279 280 280 283 285 285 285 285 284 283 283 282 283 284
211 212 216 222 226 229 233 237 239 243 246 249 251 253 254 255 257 260 263 265 268 270 272 274 275 276 276 276 276 278 279 279 280 282 284 284 283 281 282 282 281 283 283 282
212 217 221 224 228 230 234 237 241 244 244 246 248 250 252 255 259 261 263 266 267 269 270 272 274 274 274 273 274 276 278 279 279 280 281 281 281 280 280 280 280 282 283 282
Height
5879 5882 5883 5885 5887 5890 5892 5895 5896 5897 5896 5895 5894 5894 5893 5891 5890 5890 5887 5887 5886 5885 5884 5883 5883 5882 5881 5880 5879 5878 5877 5876 5875 5874 5874 5874 5875 5876 5877 5878 5879 5882 5884 5885
5876 5878 5881 5882 5885 5887 5888 5891 5893 5894 5893 5893 5892 5892 5891 5890 5889 5888 5886 5885 5885 5883 5882 5882 5881 5881 5879 5878 5877 5876 5875 5874 5873 5872 5872 5872 5873 5874 5875 5876 5878 5880 5882 5884
5872 5876 5877 5879 5881 5884 5885 5888 5890 5892 5891 5890 5890 5890 5889 5887 5887 5886 5884 5883 5882 5881 5879 5879 5879 5878 5877 5876 5875 5874 5873 5872 5871 5871 5870 5870 5871 5872 5874 5875 5877 5878 5879 5881
5868 5871 5873 5876 5878 5880 5882 5885 5886 5888 5888 5888 5889 5889 5887 5885 5884 5884 5883 5882 5880 5879 5877 5877 5876 5876 5875 5874 5873 5872 5871 5870 5869 5869 5869 5869 5869 5870 5872 5873 5874 5875 5877 5879
5864 5867 5869 5872 5875 5877 5879 5881 5883 5883 5884 5886 5886 5887 5886 5882 5881 5880 5879 5879 5878 5875 5875 5874 5874 5873 5873 5872 5871 5870 5869 5868 5867 5867 5867 5867 5867 5868 5869 5870 5872 5873 5874 5876
5860 5862 5865 5868 5871 5873 5875 5877 5879 5880 5881 5882 5883 5884 5884 5880 5879 5878 5877 5876 5875 5874 5873 5871 5869 5870 5870 5870 5869 5868 5867 5866 5866 5865 5865 5864 5865 5866 5867 5868 5869 5870 5871 5873
5855 5858 5860 5864 5866 5869 5872 5874 5876 5877 5878 5879 5880 5881 5881 5877 5876 5875 5875 5874 5874 5872 5872 5870 5869 5869 5869 5868 5867 5866 5865 5864 5864 5863 5862 5862 5862 5863 5863 5864 5865 5867 5868 5870
5850 5854 5856 5859 5863 5865 5868 5871 5874 5877 5878 5877 5876 5877 5877 5874 5874 5873 5873 5873 5873 5871 5871 5870 5869 5868 5867 5866 5865 5864 5863 5862 5862 5861 5860 5860 5860 5860 5860 5861 5862 5863 5865 5866
5848 5851 5853 5855 5858 5861 5864 5866 5871 5874 5874 5875 5874 5874 5872 5872 5871 5871 5871 5871 5870 5869 5868 5868 5867 5866 5866 5865 5863 5862 5861 5860 5859 5859 5858 5858 5858 5858 5858 5858 5859 5860 5861 5863
5844 5848 5850 5851 5853 5856 5860 5864 5866 5868 5870 5871 5872 5870 5868 5866 5868 5868 5868 5867 5867 5866 5866 5865 5865 5864 5864 5863 5862 5861 5859 5858 5857 5856 5856 5856 5855 5855 5855 5855 5856 5857 5857 5858
5837 5843 5847 5848 5848 5852 5855 5858 5861 5865 5867 5869 5869 5868 5864 5863 5865 5865 5864 5863 5864 5864 5863 5862 5862 5862 5861 5860 5859 5858 5857 5856 5855 5854 5854 5853 5853 5853 5853 5853 5853 5853 5854 5854
5831 5837 5841 5844 5845 5847 5851 5854 5857 5860 5862 5864 5865 5864 5859 5858 5859 5861 5862 5860 5860 5861 5861 5860 5860 5860 5859 5858 5857 5856 5855 5854 5853 5852 5851 5851 5851 5850 5850 5849 5850 5850 5850 5850
5826 5830 5835 5839 5843 5844 5846 5849 5852 5856 5858 5860 5862 5861 5856 5855 5855 5857 5858 5858 5857 5857 5858 5857 5857 5857 5857 5857 5856 5854 5853 5851 5850 5849 5849 5848 5848 5847 5847 5847 5846 5846 5846 5846
5819 5823 5829 5835 5838 5840 5841 5844 5847 5851 5853 5856 5857 5854 5853 5851 5851 5853 5853 5855 5855 5855 5855 5855 5855 5855 5854 5854 5853 5852 5850 5849 5847 5847 5846 5846 5845 5844 5844 5844 5843 5843 5842 5842
5812 5817 5822 5827 5831 5834 5836 5839 5843 5846 5849 5851 5851 5849 5846 5846 5848 5850 5850 5851 5851 5852 5852 5853 5852 5852 5851 5851 5850 5849 5848 5846 5844 5844 5843 5842 5842 5841 5841 5840 5840 5839 5839 5838
5806 5811 5816 5821 5825 5828 5831 5834 5837 5841 5844 5846 5843 5842 5841 5841 5843 5845 5847 5848 5849 5849 5849 5849 5849 5848 5848 5847 5847 5846 5845 5843 5842 5841 5840 5839 5839 5838 5837 5837 5837 5836 5836 5836
5799 5805 5810 5815 5820 5822 5826 5829 5832 5835 5838 5839 5838 5838 5838 5838 5839 5841 5843 5844 5845 5845 5846 5846 5845 5845 5844 5844 5843 5842 5841 5840 5839 5838 5836 5836 5835 5834 5834 5833 5833 5832 5832 5832
5793 5799 5804 5809 5814 5817 5822 5824 5827 5829 5832 5833 5832 5832 5833 5833 5835 5838 5839 5840 5841 5842 5842 5842 5841 5841 5841 5840 5839 5838 5837 5837 5836 5835 5833 5832 5831 5831 5830 5830 5830 5829 5829 5829
5787 5793 5798 5803 5807 5811 5815 5818 5821 5823 5824 5826 5826 5827 5830 5830 5831 5833 5835 5836 5837 5837 5837 5837 5837 5836 5836 5835 5834 5834 5833 5832 5832 5831 5830 5829 5828 5827 5827 5826 5826 5825 5825 5825
5780 5786 5792 5796 5801 5804 5807 5809 5813 5816 5818 5819 5819 5821 5823 5826 5827 5829 5830 5831 5832 5832 5832 5832 5832 5832 5831 5831 5830 5830 5829 5828 5827 5827 5826 5825 5824 5823 5823 5822 5822 5822 5822 5821
5774 5779 5784 5789 5794 5796 5798 5800 5806 5810 5811 5812 5814 5815 5817 5820 5822 5824 5825 5825 5826 5826 5826 5826 5826 5826 5826 5826 5825 5825 5824 5824 5823 5822 5821 5821 5820 5819 5819 5818 5818 5817 5817 5817
5767 5773 5778 5783 5787 5790 5790 5794 5798 5801 5804 5805 5807 5810 5813 5815 5816 5818 5819 5820 5820 5821 5821 5820 5820 5820 5820 5820 5819 5819 5819 5818 5818 5817 5816 5816 5815 5815 5814 5814 5813 5813 5812 5812
5761 5767 5772 5776 5779 5779 5783 5787 5791 5795 5797 5798 5801 5804 5807 5809 5810 5812 5813 5814 5814 5815 5815 5815 5814 5814 5814 5814 5814 5813 5813 5813 5812 5812 5811 5811 5810 5810 5809 5809 5808 5807 5807 5806
5753 5759 5764 5767 5769 5774 5778 5782 5786 5789 5790 5792 5796 5798 5801 5803 5804 5806 5807 5808 5808 5808 5808 5808 5808 5808 5808 5808 5807 5807 5807 5807 5807 5806 5806 5805 5805 5804 5804 5803 5802 5802 5801 5801
5744 5749 5753 5758 5763 5768 5772 5776 5780 5783 5784 5787 5790 5792 5795 5796 5798 5799 5800 5801 5802 5802 5802 5802 5802 5802 5802 5802 5802 5802 5801 5801 5801 5801 5800 5799 5799 5798 5798 5797 5797 5796 5796 5795
5736 5741 5747 5752 5757 5762 5766 5770 5774 5777 5779 5781 5784 5786 5788 5790 5791 5792 5794 5794 5795 5795 5795 5795 5796 5796 5796 5796 5796 5796 5796 5795 5795 5795 5795 5794 5793 5793 5792 5791 5790 5790 5789 5789